[[{"header":{"parameterUnit":"m.s-1","parameterCategory":1,"la1":30.2991,"la2":30.254,"lo1":-89.0895,"lo2":-89.0444,"dy":0.0017,"dx":0.0017,"nx":28,"ny":28,"refTime":"2025-05-01T09:00:00:Z","depth":0,"parameterNumber":2,"parameterNumberName":"U-component_of_WINDS"},"data":[0,0,0,0,0,0,0,0,0,0,0,0,0,0,0,0,0,0,0,0,0,0,0,0,0,0,0,0,0,0,0,0,0,0,0,0,0,0,0,0,0,0,0,0,0,0,0,0,0,0,0,0,0,0,0,0,0,0,-1.0922,-1.0923,0,-1.1057,-1.1059,-1.106,-1.1107,-1.1106,-1.1106,-1.1105,-1.1248,-1.1252,-1.1256,0,0,0,0,0,0,0,0,0,0,0,0,0,-1.0707,-1.0711,-1.0921,-1.0923,-1.0925,-1.1057,-1.1059,-1.1061,-1.1107,-1.1106,-1.1106,-1.1105,-1.1246,-1.1252,-1.1257,0,0,0,0,0,0,0,0,0,0,0,0,0,-1.0817,-1.0712,-1.0921,-1.0964,-1.0969,-1.1056,-1.1059,-1.1061,-1.1107,-1.1106,-1.1105,-1.1105,-1.1245,-1.1251,-1.1257,-1.1314,0,0,-1.1277,-1.128,0,0,0,0,0,0,0,0,-1.0811,-1.0825,-1.0956,-1.0961,-1.0967,-1.1064,-1.1036,-1.1146,-1.1107,-1.1055,-1.1105,-1.1104,-1.1188,-1.1199,-1.1226,-1.132,-1.1327,-1.1278,-1.1282,-1.1284,-1.1286,0,0,0,0,0,0,0,-1.0803,-1.0819,-1.0975,-1.0958,-1.0964,-1.0978,-1.0992,-1.1057,-1.1124,-1.1059,-1.1063,-1.1078,-1.1191,-1.122,-1.123,-1.1329,-1.1278,-1.1283,-1.1287,-1.129,-1.1477,-1.1478,0,0,0,0,0,0,-1.0788,-1.0813,-1.0971,-1.0979,-1.0885,-1.0982,-1.0999,-1.1034,-1.1124,-1.1136,-1.1079,-1.108,-1.1209,-1.1222,-1.1235,-1.1308,-1.1284,-1.129,-1.1294,-1.1476,-1.1478,-1.1479,0,0,0,0,0,0,-1.0783,-1.0801,-1.0965,-1.0897,-1.0919,-1.0987,-1.1026,-1.1037,-1.1066,-1.1138,-1.1151,-1.1096,-1.1209,-1.1226,-1.1294,-1.1313,-1.1293,-1.1299,-1.1475,-1.1477,-1.1478,-1.1453,0,0,0,0,0,0,-1.0777,-1.0799,-1.082,-1.0897,-1.0922,-1.1021,-1.1027,-1.104,-1.1077,-1.1079,-1.1158,-1.117,-1.121,-1.1284,-1.13,-1.1322,-1.1304,-1.1474,-1.1476,-1.1478,-1.1452,-1.1453,-1.1454,0,0,0,0,0,-1.0769,-1.0809,-1.0821,-1.084,-1.095,-1.1022,-1.1036,-1.108,-1.1078,-1.1101,-1.1147,-1.1167,-1.1308,-1.129,-1.1309,-1.1333,-1.1473,-1.1475,-1.1478,-1.1452,-1.1453,-1.1454,0,0,0,0,0,0,-1.0734,-1.0819,-1.0834,-1.09,-1.0953,-1.1029,-1.1059,-1.108,-1.1136,-1.1136,-1.1189,-1.1207,-1.1271,-1.1309,-1.1287,-1.1393,-1.1392,-1.1398,-1.1366,-1.1368,-1.1369,-1.1359,-1.131,0,0,0,0,0,-1.0733,-1.0783,-1.0856,-1.0907,-1.0932,-1.0991,-1.1024,-1.1053,-1.1111,-1.1134,-1.1185,-1.1241,-1.1299,-1.1335,-1.1392,-1.1458,-1.1476,-1.1484,-1.1485,-1.1485,-1.149,-1.153,-1.1534,-1.1487,-1.1487,-1.1487,0,0,-1.0734,-1.0787,-1.0815,-1.0901,-1.0945,-1.0997,-1.101,-1.1064,-1.1103,-1.1142,-1.121,-1.1249,-1.1316,-1.1383,-1.1416,-1.1417,-1.1507,-1.1488,-1.1488,-1.1493,-1.1532,-1.1537,-1.1541,-1.1489,-1.1488,-1.1488,0,0,-1.0761,-1.0805,-1.0853,-1.0897,-1.0964,-1.1002,-1.1014,-1.1087,-1.1115,-1.1183,-1.1213,-1.1262,-1.1359,-1.1405,-1.1441,-1.1486,-1.1508,-1.1503,-1.1509,-1.1547,-1.155,-1.1554,-1.1571,-1.1576,-1.1508,-1.1508,-1.1508,0,-1.0753,-1.0831,-1.0875,-1.0928,-1.0965,-1.1001,-1.1051,-1.1092,-1.1175,-1.12,-1.12,-1.1323,-1.1371,-1.145,-1.1461,-1.1488,-1.1504,-1.1495,-1.1546,-1.155,-1.1554,-1.1571,-1.1577,-1.1507,-1.1507,-1.1507,-1.1507,0,-1.0819,-1.0873,-1.0903,-1.098,-1.1021,-1.1072,-1.1125,-1.1162,-1.1187,-1.1226,-1.1296,-1.1354,-1.1423,-1.1444,-1.147,-1.1527,-1.1526,-1.1535,-1.1535,-1.1557,-1.1574,-1.158,-1.1506,-1.1506,-1.1506,-1.1506,0,0,-1.0829,-1.0929,-1.094,-1.0976,-1.1052,-1.1095,-1.1148,-1.1214,-1.1245,-1.1301,-1.1348,-1.1429,-1.1438,-1.1479,-1.151,-1.1543,-1.1576,-1.1549,-1.1551,-1.1553,-1.1645,-1.1638,-1.1645,-1.159,-1.1592,-1.1593,-1.164,0,-1.0867,-1.0961,-1.1002,-1.1079,-1.113,-1.1165,-1.1212,-1.1264,-1.1302,-1.1352,-1.1395,-1.1452,-1.1459,-1.1484,-1.1518,-1.1565,-1.1596,-1.1562,-1.1636,-1.1638,-1.1619,-1.1654,-1.1647,-1.1688,-1.1646,-1.1648,-1.1648,0,-1.0924,-1.0978,-1.1059,-1.113,-1.1153,-1.1193,-1.1258,-1.1305,-1.1366,-1.1391,-1.1437,-1.1467,-1.1525,-1.1521,-1.1603,-1.1579,-1.1612,-1.164,-1.1642,-1.1652,-1.1645,-1.1665,-1.1702,-1.1708,-1.1659,-1.1658,-1.1657,0,-1.0924,-1.1018,-1.1078,-1.1108,-1.1192,-1.122,-1.1256,-1.1316,-1.1354,-1.141,-1.1436,-1.1499,-1.1534,-1.1583,-1.163,-1.1622,-1.1708,-1.1707,-1.1732,-1.1731,-1.175,-1.1748,-1.1793,-1.1769,-1.1769,-1.1769,-1.1768,0,-1.0963,-1.1011,-1.108,-1.1117,-1.1173,-1.1221,-1.1275,-1.1314,-1.1368,-1.1415,-1.1449,-1.1493,-1.1551,-1.1603,-1.164,-1.1703,-1.1719,-1.1742,-1.1752,-1.174,-1.1737,-1.1763,-1.1762,-1.177,-1.177,-1.177,-1.1769,0,-1.0973,-1.102,-1.1089,-1.1162,-1.1182,-1.122,-1.1284,-1.1322,-1.1361,-1.1421,-1.1437,-1.15,-1.1562,-1.1613,-1.1696,-1.1721,-1.1787,-1.1797,-1.1766,-1.1771,-1.1794,-1.1792,-1.1859,-1.1871,-1.1836,-1.1837,-1.1837,0,-1.0995,-1.1033,-1.111,-1.1143,-1.1179,-1.1232,-1.127,-1.1318,-1.1357,-1.1429,-1.146,-1.1524,-1.1579,-1.1677,-1.1731,-1.1794,-1.1807,-1.1826,-1.1817,-1.1804,-1.1809,-1.1807,-1.1811,-1.1827,-1.1828,-1.1828,-1.1828,0,-1.103,-1.1051,-1.1104,-1.1165,-1.1209,-1.126,-1.1312,-1.1338,-1.1396,-1.1438,-1.1501,-1.1543,-1.1627,-1.1691,-1.176,-1.18,-1.1824,-1.183,-1.1839,-1.1828,-1.1809,-1.1821,-1.177,-1.1828,-1.1828,-1.1828,-1.1828,-1.1828,-1.1048,-1.1084,-1.1143,-1.1201,-1.1245,-1.1292,-1.1332,-1.1376,-1.1429,-1.15,-1.1526,-1.1591,-1.1653,-1.1747,-1.1787,-1.184,-1.1843,-1.1856,-1.186,-1.1863,-1.1862,-1.1799,-1.1853,-1.1853,-1.1853,-1.1853,-1.1853,0,-1.1086,-1.1125,-1.1178,-1.1249,-1.1295,-1.1311,-1.137,-1.1408,-1.1464,-1.1518,-1.1571,-1.1644,-1.1707,-1.1765,-1.1831,-1.1862,-1.1875,-1.1878,-1.1877,-1.1886,-1.1855,-1.1841,-1.1867,-1.1867,-1.1867,-1.1867,-1.1867,-1.1867,-1.1111,-1.1172,-1.1201,-1.1285,-1.1325,-1.1388,-1.142,-1.1465,-1.1508,-1.1588,-1.164,-1.1677,-1.1733,-1.1803,-1.1862,-1.1878,-1.1901,-1.1901,-1.192,-1.189,-1.1888,-1.1886,-1.1873,-1.1905,-1.1906,-1.1947,-1.1947,-1.1947]},{"header":{"parameterUnit":"m.s-1","parameterCategory":1,"la1":30.2991,"la2":30.254,"lo1":-89.0895,"lo2":-89.0444,"dy":0.0017,"dx":0.0017,"nx":28,"ny":28,"refTime":"2025-05-01T09:00:00:Z","depth":0,"parameterNumber":3,"parameterNumberName":"V-component_of_WINDS"},"data":[0,0,0,0,0,0,0,0,0,0,0,0,0,0,0,0,0,0,0,0,0,0,0,0,0,0,0,0,0,0,0,0,0,0,0,0,0,0,0,0,0,0,0,0,0,0,0,0,0,0,0,0,0,0,0,0,0,0,5.856,5.8561,0,5.864,5.8641,5.8642,5.8592,5.859,5.8587,5.8585,5.866,5.8664,5.8668,0,0,0,0,0,0,0,0,0,0,0,0,0,5.8355,5.8359,5.856,5.8561,5.8562,5.864,5.8641,5.8642,5.8592,5.859,5.8587,5.8584,5.8659,5.8663,5.8668,0,0,0,0,0,0,0,0,0,0,0,0,0,5.844,5.836,5.856,5.8547,5.8546,5.864,5.8641,5.8642,5.8593,5.8589,5.8586,5.8583,5.8657,5.8663,5.8669,5.8777,0,0,5.8688,5.8691,0,0,0,0,0,0,0,0,5.8435,5.8448,5.8548,5.8548,5.8548,5.8603,5.8596,5.8687,5.8594,5.8575,5.8585,5.8581,5.8643,5.865,5.8673,5.8781,5.8784,5.8689,5.8692,5.8695,5.8697,0,0,0,0,0,0,0,5.8429,5.8444,5.8591,5.8549,5.8549,5.8534,5.8542,5.8613,5.8627,5.8576,5.8573,5.8584,5.8642,5.8667,5.8674,5.8785,5.8689,5.8694,5.8698,5.87,5.8982,5.8986,0,0,0,0,0,0,5.8426,5.8439,5.8589,5.8594,5.8482,5.854,5.855,5.8588,5.8627,5.8629,5.8586,5.8581,5.8658,5.8667,5.8677,5.8803,5.8695,5.8701,5.8705,5.8979,5.8983,5.8987,0,0,0,0,0,0,5.8421,5.8439,5.8585,5.8516,5.8533,5.8548,5.8591,5.8592,5.8616,5.8634,5.8636,5.8609,5.8656,5.8668,5.8752,5.8805,5.8704,5.8709,5.8974,5.898,5.8985,5.906,0,0,0,0,0,0,5.8416,5.8438,5.8482,5.8517,5.8537,5.8663,5.8595,5.8596,5.8628,5.8622,5.8656,5.8658,5.8654,5.8743,5.8759,5.8812,5.8714,5.8969,5.8977,5.8983,5.9052,5.9067,5.908,0,0,0,0,0,5.8409,5.8499,5.8484,5.8503,5.8592,5.8666,5.8677,5.8672,5.8633,5.8675,5.8686,5.8657,5.8798,5.8752,5.8769,5.8825,5.8966,5.8975,5.8983,5.9046,5.9064,5.9079,0,0,0,0,0,0,5.8467,5.8503,5.8488,5.8593,5.8627,5.8658,5.8711,5.8692,5.8736,5.8728,5.8717,5.8725,5.8813,5.8828,5.8777,5.893,5.8875,5.8887,5.8918,5.8935,5.8948,5.8942,5.8719,0,0,0,0,0,5.8493,5.8553,5.858,5.8669,5.8688,5.8697,5.8728,5.8722,5.8756,5.8769,5.8787,5.8819,5.8869,5.8903,5.8951,5.9055,5.9059,5.9101,5.9115,5.9126,5.9136,5.9188,5.9206,5.9015,5.9015,5.9015,0,0,5.8545,5.8572,5.861,5.8682,5.8708,5.8766,5.8709,5.8774,5.8817,5.8778,5.8859,5.8873,5.8908,5.9002,5.9044,5.9016,5.919,5.9137,5.9145,5.9149,5.9199,5.9217,5.9233,5.9021,5.9019,5.9019,0,0,5.8671,5.8699,5.8776,5.8803,5.8843,5.8848,5.8866,5.89,5.8908,5.899,5.8961,5.901,5.9099,5.9124,5.9149,5.9282,5.9256,5.9298,5.9368,5.9419,5.9434,5.9448,5.9492,5.9509,5.9308,5.9308,5.9308,0,5.873,5.8821,5.8817,5.8884,5.8914,5.8884,5.8959,5.8985,5.9038,5.9058,5.9028,5.9137,5.9159,5.9256,5.9289,5.9311,5.9328,5.9293,5.9433,5.9446,5.9458,5.9501,5.9518,5.9313,5.9312,5.9312,5.9311,0,5.889,5.8953,5.901,5.9064,5.9101,5.9172,5.9175,5.9212,5.9201,5.9209,5.929,5.9315,5.9366,5.9389,5.9379,5.9485,5.9466,5.9435,5.9379,5.9481,5.9521,5.9537,5.9319,5.9318,5.9316,5.9315,0,0,5.9055,5.9105,5.9126,5.9149,5.919,5.9237,5.9305,5.9357,5.9388,5.9425,5.9479,5.9555,5.9525,5.9553,5.9545,5.9591,5.9691,5.9553,5.9553,5.9576,5.9805,5.9827,5.9847,5.9675,5.9678,5.9681,5.9802,0,5.9182,5.9303,5.93,5.9411,5.9467,5.9438,5.9497,5.9527,5.9535,5.9581,5.9589,5.9642,5.9601,5.9616,5.9661,5.967,5.9736,5.9661,5.9722,5.9724,5.9713,5.9868,5.9892,6.0005,5.9817,5.982,5.9822,0,5.9345,5.9389,5.9507,5.9538,5.9561,5.9615,5.966,5.9706,5.9738,5.974,5.9771,5.9755,5.9821,5.9764,5.9852,5.9801,5.9825,5.9834,5.9838,5.9841,5.9778,5.9873,6.0041,6.0058,5.9847,5.9845,5.9843,0,5.9451,5.9539,5.962,5.9641,5.968,5.9717,5.9735,5.9764,5.9794,5.9834,5.9853,5.9899,5.9923,5.9958,5.9954,5.9914,6.0042,5.9986,6.0043,6.0043,6.007,6.0068,6.0242,6.009,6.009,6.0089,6.0089,0,5.9591,5.9663,5.9668,5.9718,5.9796,5.9791,5.9868,5.9881,5.9907,5.9956,5.9933,5.9979,5.9972,6.0018,6.0015,6.0086,6.0098,6.0099,6.0097,6.01,6.01,6.0115,6.0106,6.0094,6.0093,6.0092,6.0091,0,5.9721,5.9728,5.9814,5.9844,5.9853,5.9909,5.9933,5.9978,5.9985,6.0047,6.0061,6.007,6.0121,6.0121,6.018,6.0178,6.0265,6.0255,6.0255,6.0252,6.0308,6.0302,6.0496,6.052,6.0355,6.0356,6.0357,0,5.981,5.9865,5.99,5.9933,5.9953,6.0005,6.0037,6.0032,6.0065,6.0104,6.0144,6.0194,6.0234,6.0318,6.0328,6.0372,6.0361,6.0426,6.0368,6.0368,6.0359,6.0355,6.0359,6.0437,6.0439,6.044,6.0442,0,5.9964,5.9964,6.0012,6.006,6.0098,6.0135,6.0169,6.0196,6.0195,6.0232,6.0286,6.0317,6.0377,6.0426,6.0469,6.0483,6.0461,6.046,6.0475,6.0478,6.0475,6.0475,6.0284,6.0455,6.0454,6.0453,6.0452,6.0452,6.0075,6.0121,6.0153,6.0206,6.0231,6.0263,6.0307,6.0318,6.0364,6.0414,6.0407,6.0466,6.0494,6.0549,6.0567,6.0611,6.0588,6.0611,6.0616,6.0621,6.0626,6.047,6.0619,6.0619,6.0618,6.0618,6.0618,0,6.0226,6.0245,6.0294,6.0343,6.0383,6.0361,6.0397,6.0431,6.0484,6.0513,6.0553,6.0613,6.066,6.0673,6.0718,6.075,6.0741,6.0762,6.0758,6.0761,6.0646,6.0627,6.0768,6.0768,6.0768,6.0768,6.0768,6.0768,6.031,6.0387,6.039,6.0478,6.0495,6.0555,6.0577,6.0604,6.0627,6.0696,6.0735,6.0744,6.0766,6.0812,6.0852,6.0855,6.0871,6.0896,6.0894,6.0785,6.077,6.0755,6.0738,6.09,6.09,6.1005,6.1006,6.1007]}]]